Change the Weather History Date:

Sunday, November 10, 2013

  Actual Average Record
Temperature  
Mean Temperature 26 °F -  
Max Temperature 37 °F 35 °F 55 °F (2005)
Min Temperature 11 °F 18 °F 8 °F (1997)
Degree Days  
Heating Degree Days 40    
Moisture  
Dew Point 20 °F    
Average Humidity 80    
Maximum Humidity 93    
Minimum Humidity 62    
Precipitation  
Precipitation 0.00 in - - ()
Sea Level Pressure  
Sea Level Pressure 30.25 in    
Wind  
Wind Speed 11 mph (North)    
Max Wind Speed 23 mph    
Max Gust Speed 26 mph    
Visibility 7 miles    
Events Rain , Snow    
Averages and records for this station are not official NWS values.
T = Trace of Precipitation, MM = Missing Value Source: NWS Daily Summary

Daily Weather History Graph

Daily Weather History Graph

Search for Another Location

Airport or City:

Trip Planner

Search our weather history database for the weather conditions in past years. The results will help you decide how hot, cold, wet, or windy it might be!

Date:

Astronomy

Nov. 10, 2013 Rise Set
Actual Time 7:28 AM CST 4:57 PM CST
Civil Twilight 6:55 AM CST 5:31 PM CST
Nautical Twilight 6:17 AM CST 6:08 PM CST
Astronomical Twilight 5:41 AM CST 6:44 PM CST
Moon 1:32 PM CST (11/10) No Moon Set
Length of Visible Light 10h 35m
Length of Day
9h 29m
First Quarter, 56% of the Moon is Illuminated
Nov 10
First Quarter
Nov 17
Full
Nov 25
Last Quarter
Dec 2
New
Dec 9
First Quarter

Hourly Weather History & Observations

Time (CST) Temp. Windchill Dew Point Humidity Pressure Visibility Wind Dir Wind Speed Gust Speed Precip Events Conditions
12:48 AM 24.8 °F 19.1 °F 21.2 °F 86% 30.26 in 10.0 mi NW 4.6 mph - N/A   Mostly Cloudy
12:58 AM 24.1 °F 19.7 °F 21.2 °F 89% 30.32 in 10.0 mi NNW 3.5 mph - N/A   Mostly Cloudy
1:58 AM 24.8 °F 17.9 °F 22.3 °F 90% 30.31 in 10.0 mi SW 5.8 mph - N/A   Mostly Cloudy
2:03 AM 24.8 °F 17.9 °F 21.2 °F 86% 30.26 in 10.0 mi SW 5.8 mph - N/A   Scattered Clouds
2:58 AM 21.9 °F 15.7 °F 19.9 °F 92% 30.31 in 10.0 mi SW 4.6 mph - N/A   Clear
3:58 AM 23.0 °F 14.7 °F 20.8 °F 91% 30.29 in 10.0 mi SW 6.9 mph - N/A   Clear
4:58 AM 22.8 °F 15.5 °F 20.5 °F 91% 30.29 in 10.0 mi SW 5.8 mph - N/A   Clear
5:58 AM 21.9 °F 13.4 °F 19.4 °F 90% 30.27 in 10.0 mi SW 6.9 mph - N/A   Clear
6:58 AM 23.7 °F 11.5 °F 20.7 °F 88% 30.24 in 10.0 mi SW 13.8 mph - N/A   Clear
7:58 AM 25.0 °F 14.8 °F 21.4 °F 86% 30.22 in 10.0 mi SW 10.4 mph - N/A   Clear
8:58 AM 29.3 °F 21.5 °F 24.4 °F 82% 30.20 in 10.0 mi SW 8.1 mph - N/A   Clear
9:58 AM 33.4 °F 22.7 °F 25.5 °F 73% 30.19 in 10.0 mi West 17.3 mph 24.2 mph N/A   Partly Cloudy
10:58 AM 34.9 °F 25.3 °F 25.9 °F 70% 30.19 in 10.0 mi West 15.0 mph - N/A   Mostly Cloudy
11:58 AM 37.4 °F 29.3 °F 27.0 °F 66% 30.18 in 10.0 mi WNW 12.7 mph - N/A   Overcast
12:58 PM 37.8 °F 29.4 °F 27.1 °F 66% 30.18 in 10.0 mi NNW 13.8 mph - N/A   Overcast
1:38 PM 37.4 °F 28.9 °F 26.6 °F 65% 30.14 in 10.0 mi North 13.8 mph - N/A   Overcast
1:58 PM 36.7 °F 27.2 °F 26.8 °F 67% 30.19 in 10.0 mi North 16.1 mph - N/A   Overcast
2:03 PM 35.6 °F 24.5 °F 26.6 °F 70% 30.14 in 10.0 mi NNE 20.7 mph 25.3 mph N/A Rain Light Rain
2:09 PM 35.6 °F 25.5 °F 28.4 °F 75% 30.15 in 7.0 mi NNE 17.3 mph 25.3 mph N/A Rain Light Rain
2:19 PM 32.0 °F 20.5 °F 30.2 °F 93% 30.15 in 2.0 mi NNE 18.4 mph 25.3 mph N/A Snow Light Snow
2:24 PM 32.0 °F 19.2 °F 28.4 °F 87% 30.16 in 1.8 mi NNE 23.0 mph - N/A Snow Light Snow
2:29 PM 30.2 °F 18.1 °F 26.6 °F 86% 30.16 in 1.8 mi NNE 18.4 mph 25.3 mph N/A Snow Light Snow
2:34 PM 28.4 °F 16.2 °F 26.6 °F 93% 30.17 in 2.0 mi NNE 17.3 mph - N/A Snow Light Snow
2:49 PM 28.4 °F 15.8 °F 24.8 °F 86% 30.17 in 3.0 mi NNE 18.4 mph 26.5 mph N/A   Overcast
2:54 PM 28.4 °F 15.1 °F 24.8 °F 86% 30.17 in 3.0 mi NNE 20.7 mph 26.5 mph N/A   Overcast
2:58 PM 26.6 °F 12.7 °F 24.8 °F 93% 30.23 in 3.0 mi NNE 20.7 mph 26.5 mph 0.00 in   Overcast
3:13 PM 26.6 °F 12.4 °F 23.0 °F 86% 30.18 in 3.0 mi NE 21.9 mph 25.3 mph N/A   Overcast
3:43 PM 24.8 °F 11.1 °F 19.4 °F 80% 30.19 in 4.0 mi NNE 18.4 mph 25.3 mph N/A   Overcast
3:48 PM 23.0 °F 9.2 °F 19.4 °F 86% 30.20 in 2.5 mi NNE 17.3 mph 25.3 mph N/A Snow Light Snow
3:58 PM 23.0 °F 8.3 °F 19.2 °F 85% 30.27 in 2.0 mi NNE 19.6 mph 24.2 mph 0.00 in Snow Light Snow
4:13 PM 23.0 °F 9.2 °F 17.6 °F 80% 30.22 in 3.0 mi NNE 17.3 mph 23.0 mph N/A Snow Light Snow
4:23 PM 21.2 °F 6.4 °F 17.6 °F 86% 30.23 in 2.0 mi NNE 18.4 mph 25.3 mph N/A Snow Light Snow
4:28 PM 21.2 °F 7.8 °F 17.6 °F 86% 30.23 in 1.2 mi NNE 15.0 mph 25.3 mph N/A Snow Light Snow
4:38 PM 21.2 °F 8.9 °F 17.6 °F 86% 30.23 in 1.5 mi NNE 12.7 mph 20.7 mph N/A Snow Light Snow
4:43 PM 21.2 °F 8.3 °F 15.8 °F 80% 30.23 in 2.5 mi NNE 13.8 mph - N/A Snow Light Snow
4:48 PM 21.2 °F 8.9 °F 15.8 °F 80% 30.23 in 5.0 mi NNE 12.7 mph - N/A Snow Light Snow
4:58 PM 21.7 °F 9.6 °F 14.2 °F 73% 30.30 in 7.0 mi NNE 12.7 mph - 0.00 in Snow Light Snow
5:07 PM 21.2 °F 8.9 °F 14.0 °F 74% 30.24 in 10.0 mi NNE 12.7 mph - N/A   Overcast
5:37 PM 21.2 °F 8.9 °F 12.2 °F 68% 30.25 in 10.0 mi North 12.7 mph - N/A   Overcast
5:58 PM 21.4 °F 9.1 °F 11.8 °F 67% 30.34 in 10.0 mi North 12.7 mph - 0.00 in   Scattered Clouds
6:58 PM 18.9 °F 5.9 °F 10.4 °F 70% 30.36 in 10.0 mi North 12.7 mph - N/A   Clear
7:58 PM 17.4 °F 4.7 °F 6.4 °F 62% 30.38 in 10.0 mi NNE 11.5 mph - N/A   Clear
8:58 PM 15.8 °F 2.1 °F 7.9 °F 71% 30.40 in 10.0 mi NNE 12.7 mph - N/A   Clear
9:58 PM 15.8 °F -0.6 °F 5.4 °F 63% 30.43 in 10.0 mi North 18.4 mph 21.9 mph N/A   Clear
10:58 PM 14.2 °F -0.6 °F 5.0 °F 67% 30.44 in 10.0 mi North 13.8 mph - N/A   Clear
11:58 PM 11.7 °F -2.5 °F 3.0 °F 68% 30.46 in 10.0 mi North 11.5 mph - N/A   Clear